Regional Weather Roundup
Issued by NWS Green Bay, WI

Home | Current Version | Previous Version | Graphics & Text | Print | Product List | Glossary Off
Versions: 1 2 3 4 5 6 7 8 9 10 11 12 13 14 15 16 17 18 19 20 21 22 23 24 25 26 27 28 29 30 31 32 33 34 35 36 37 38 39 40 41 42 43 44 45 46 47 48 49 50

000
ASUS43 KGRB 270359
RWRGRB

NORTH-CENTRAL AND NORTHEAST WISCONSIN REGIONAL WEATHER ROUNDUP
NATIONAL WEATHER SERVICE GREEN BAY WI
1000 PM CST MON JAN 26 2015

WIZ005-009-010>012-018-019-270500-
NORTH CENTRAL WISCONSIN

CITY           SKY/WX    TMP DP  RH WIND       PRES   REMARKS
IRONWOOD       CLOUDY    21  18  86 CALM      29.88R
MANITOWISH WTR NOT AVBL
ARBOR VITAE    NOT AVBL
EAGLE RIVER    NOT AVBL
LAND O LAKES   NOT AVBL
RHINELANDER    CLOUDY    19  16  88 CALM      29.88R
PHILLIPS       NOT AVBL
ANTIGO         NOT AVBL
TOMAHAWK       NOT AVBL
MERRILL        NOT AVBL
$$

WIZ013-073-270500-
NORTHEAST WISCONSIN

CITY           SKY/WX    TMP DP  RH WIND       PRES   REMARKS
IRON MOUNTAIN  LGT SNOW  20  17  88 E6        29.92R FOG
MARINETTE      CLOUDY    25  19  80 SE7       29.95R
$$

WIZ017-030-035>037-045-270500-
CENTRAL WISCONSIN

CITY           SKY/WX    TMP DP  RH WIND       PRES   REMARKS
MEDFORD        NOT AVBL
WAUSAU         CLOUDY    21  19  92 E6        29.87S
MOSINEE        NOT AVBL
MARSHFIELD     CLOUDY    23  20  88 E5        29.87S
WISC RAPIDS    CLOUDY    23  19  85 E3        29.90S
STEVENS POINT  NOT AVBL
WAUPACA        NOT AVBL
SHAWANO        NOT AVBL
CLINTONVILLE   NOT AVBL
$$

WIZ038-039-048-051-270500-
FOX VALLEY

CITY           SKY/WX    TMP DP  RH WIND       PRES   REMARKS
NWS GREEN BAY  LGT SNOW  25  23  92 N3        29.93R FOG
APPLETON       LGT SNOW  25  23  93 E3        29.91R
OSHKOSH        LGT SNOW  24  21  88 CALM      29.91R VSB 1
FOND DU LAC    LGT SNOW  24  21  88 SE3       29.90S VSB 1
$$

WIZ022-050-052-270500-
EAST CENTRAL WISCONSIN

CITY           SKY/WX    TMP DP  RH WIND       PRES   REMARKS
STURGEON BAY   CLOUDY    23  18  80 SE7       29.97R
MANITOWOC      NOT AVBL
SHEBOYGAN      CLOUDY    26  22  84 E3        29.92S
$$

LMZ563-521-522-541>543-270500-
LAKESHORE

STATION/POSITION TIME  TEMP    WIND        PRES    VSBY  WAVE
                       AIR SEA DIR/SP/G                  HT/PER
                 (UTC) (F)     (DEG/KT/KT) (MB)    (MI)  (FT/S)
SHEBOYGAN LKSHOR 0300   27     130/ 17/ 17 1014.4R
KEWAUNEE LKSHORE 0300   26     150/ 13/ 16 1013.2R
NORTHPORT PIER   0300   24     130/ 10/ 12 1014.9R
SISTER BAY LKSHO 0300   24     140/  8/ 11   N/A
CHAMBERS ISLAND  0300   23      70/  5/  7 1014.9R
MENOMINEE LKSHOR 0300   24     100/  8     1015.1R
$$


USA.gov is the U.S. government's official web portal to all federal, state and local government web resources and services.